Weather History for Port Hope, MI

Change the Weather History Date:

Sunday, February 23, 2014

  Actual Average Record
Temperature  
Mean Temperature 21 °F -  
Max Temperature 25 °F 30 °F 39 °F (1998)
Min Temperature 17 °F 19 °F 8 °F (2011)
Degree Days  
Heating Degree Days 44    
Moisture  
Dew Point 9 °F    
Average Humidity 61    
Maximum Humidity 71    
Minimum Humidity 49    
Precipitation  
Precipitation 0.00 in - - ()
Sea Level Pressure  
Sea Level Pressure 29.98 in    
Wind  
Wind Speed 9 mph (West)    
Max Wind Speed 15 mph    
Max Gust Speed 25 mph    
Averages and records for this station are not official NWS values.
T = Trace of Precipitation, MM = Missing Value Source: NWS Daily Summary

Daily Weather History Graph

Daily Weather History Graph

Search for Another Location

Airport:

Trip Planner

Search our weather history database for the weather conditions in past years. The results will help you decide how hot, cold, wet, or windy it might be!

Date:

Astronomy

Feb. 23, 2014 Rise Set
Actual Time 7:17 AM EST 6:11 PM EST
Civil Twilight 6:48 AM EST 6:40 PM EST
Nautical Twilight 6:15 AM EST 7:14 PM EST
Astronomical Twilight 5:41 AM EST 7:47 PM EST
Moon 2:21 AM EST (2/23) 12:06 PM EST (2/23)
Length of Visible Light 11h 52m
Length of Day
10h 53m
Last Quarter, 39% of the Moon is Illuminated
Feb 23
Last Quarter
Mar 1
New
Mar 8
First Quarter
Mar 16
Full
Mar 23
Last Quarter

Hourly Weather History & Observations

Time (EST) Temp. Windchill Dew Point Humidity Pressure Visibility Wind Dir Wind Speed Gust Speed Precip Events Conditions
12:51 AM 24.1 °F 14.4 °F 14.0 °F 65% 29.92 in - WSW 9.2 mph 18.4 mph N/A   Unknown
1:51 AM 23.0 °F 12.4 °F 12.9 °F 65% 29.92 in - WSW 10.4 mph 20.7 mph N/A   Unknown
2:51 AM 21.9 °F 13.4 °F 12.0 °F 66% 29.92 in - Variable 6.9 mph - N/A   Unknown
3:51 AM 21.0 °F 12.4 °F 10.9 °F 65% 29.93 in - West 6.9 mph - N/A   Unknown
4:51 AM 19.0 °F 11.1 °F 10.0 °F 68% 29.95 in - West 5.8 mph - N/A   Unknown
5:51 AM 18.0 °F 9.8 °F 9.0 °F 68% 29.96 in - Variable 5.8 mph - N/A   Unknown
6:51 AM 17.1 °F 8.7 °F 9.0 °F 71% 29.98 in - WSW 5.8 mph - N/A   Unknown
7:51 AM 17.1 °F 6.6 °F 9.0 °F 71% 30.00 in - WSW 8.1 mph - N/A   Unknown
8:51 AM 18.0 °F 7.7 °F 9.0 °F 68% 30.01 in - WSW 8.1 mph - N/A   Unknown
9:51 AM 19.0 °F 6.8 °F 10.0 °F 68% 30.00 in - WSW 11.5 mph 18.4 mph N/A   Unknown
10:51 AM 19.9 °F 7.9 °F 10.0 °F 65% 30.00 in - West 11.5 mph 24.2 mph N/A   Unknown
11:51 AM 19.9 °F 7.9 °F 10.0 °F 65% 30.00 in - WSW 11.5 mph 25.3 mph N/A   Unknown
12:51 PM 21.9 °F 9.8 °F 10.0 °F 60% 29.99 in - West 12.7 mph 23.0 mph N/A   Unknown
1:51 PM 23.0 °F 13.1 °F 10.0 °F 58% 29.98 in - West 9.2 mph 23.0 mph N/A   Unknown
2:51 PM 25.0 °F 12.6 °F 10.0 °F 53% 29.97 in - West 15.0 mph 23.0 mph N/A   Unknown
3:51 PM 25.0 °F 15.5 °F 9.0 °F 51% 29.96 in - West 9.2 mph 19.6 mph N/A   Unknown
4:51 PM 25.0 °F 15.5 °F 8.1 °F 49% 29.95 in - West 9.2 mph 20.7 mph N/A   Unknown
5:51 PM 23.0 °F 11.1 °F 7.0 °F 50% 29.96 in - West 12.7 mph 21.9 mph N/A   Unknown
6:51 PM 21.9 °F 15.7 °F 7.0 °F 53% 29.98 in - Variable 4.6 mph - N/A   Unknown
7:51 PM 21.9 °F 11.0 °F 8.1 °F 55% 30.00 in - West 10.4 mph 20.7 mph N/A   Unknown
8:51 PM 21.0 °F 9.3 °F 7.0 °F 55% 30.01 in - WNW 11.5 mph 21.9 mph N/A   Unknown
9:51 PM 21.0 °F 9.9 °F 7.0 °F 55% 30.01 in - West 10.4 mph 17.3 mph N/A   Unknown
10:51 PM 21.0 °F 9.9 °F 9.0 °F 60% 30.01 in - WNW 10.4 mph 20.7 mph N/A   Unknown
11:51 PM 21.0 °F 11.4 °F 7.0 °F 55% 30.00 in - West 8.1 mph 18.4 mph N/A   Unknown